Home   Weather   San Jose   Past weeks

Flag for USA Past Weather in San Jose, California, USA — Yesterday and Last 2 Weeks

Now
62 °F

Clear.


Feels Like: 62 °F
Forecast: 61 / 86 °F
Wind: 6 mph from Northwest

Location: San Jose International Airport

Current Time: Jul 28, 2017 at 4:12:35 am

Latest Report: Jul 28, 2017 at 3:53 am


Visibility: 10 mi

Pressure: 29.88 "Hg

Humidity: 86%

Dew Point: 58 °F

Location of San JoseLocation

Past Weather in San Jose — Graph

°F

San Jose Temperature Yesterday

Maximum temperature yesterday: 89 °F (at 3:53 pm)
Minimum temperature yesterday: 61 °F (at 1:53 am)
Average temperature yesterday: 71 °F

High & Low Weather Summary for the Past Weeks

 TemperatureHumidityPressure
High96 °F (Jul 16, 2:53 pm)90% (Jul 14, 2:53 am)30.06 "Hg (Jul 14, 2:53 am)
Low57 °F (Jul 13, 5:53 am)16% (Jul 16, 5:53 pm)29.76 "Hg (Jul 23, 6:53 pm)
Average71 °F63%29.94 "Hg
* Reported Jul 13 2:53 am — Jul 28 2:53 am, San Jose. Weather by CustomWeather, © 2017

Note: Actual official high and low records may vary slightly from our data, if they occured in-between our weather recording intervals... More about our weather records

Advertising

San Jose Weather History for the Previous 24 Hours

Scroll right to see more
 ConditionsComfort  
Time TempWeatherWind HumidityBarometerVisibility
2:53 am
Fri, Jul 28
63 °FClear.5 mph87%29.89 "Hg10 mi
1:53 am63 °FClear.6 mph87%29.90 "Hg10 mi
12:53 am65 °FClear.3 mph85%29.90 "Hg10 mi
11:53 pm
Thu, Jul 27
66 °FClear.5 mph81%29.91 "Hg10 mi
10:53 pm68 °FClear.3 mph76%29.91 "Hg10 mi
9:53 pm69 °FClear.6 mph68%29.91 "Hg10 mi
8:53 pm72 °FClear.8 mph64%29.89 "Hg10 mi
7:53 pm75 °FSunny.12 mph58%29.88 "Hg10 mi
6:53 pm79 °FSunny.9 mph50%29.88 "Hg10 mi
5:53 pm82 °FSunny.10 mph44%29.88 "Hg10 mi
4:53 pm86 °FSunny.13 mph39%29.89 "Hg10 mi
3:53 pm89 °FSunny.10 mph29%29.90 "Hg10 mi
2:53 pm87 °FSunny.9 mph29%29.92 "Hg10 mi
1:53 pm85 °FSunny.9 mph37%29.93 "Hg10 mi
12:53 pm82 °FSunny.8 mph41%29.95 "Hg10 mi
11:53 am79 °FSunny.6 mph52%29.97 "Hg9 mi
10:53 am75 °FSunny.5 mph62%29.98 "Hg9 mi
9:53 am71 °FHaze.5 mph66%29.99 "Hg4 mi
8:53 am67 °FHaze.No wind76%30.00 "Hg4 mi
8:25 am65 °FScattered clouds.No wind81%30.00 "Hg3 mi
7:53 am64 °FMostly cloudy.No wind84%30.00 "Hg3 mi
6:53 am62 °FFog.No wind90%29.99 "Hg5 mi
5:53 am62 °FFog.No wind90%29.99 "Hg4 mi
5:31 am62 °FMostly cloudy.No wind90%29.99 "Hg8 mi
4:53 am61 °FOvercast.3 mph90%29.98 "Hg9 mi
Weather by CustomWeather, © 2017

See weather overviewHow to use our weather pages